Flag for Micronesia Weather past 2 weeks in Palikir, Pohnpei, Micronesia

Now
84 °F

Mostly cloudy.


Feels Like: 94 °F
Forecast: 78 / 86 °F
Wind: 6 mph from Southwest

Location: Pohnpei

Current Time: Jun 30, 2015 at 2:59:01 PM

Latest Report: Jun 30, 2015 at 1:52 PM


Visibility: 15 mi

Pressure: 29.79 "Hg

Humidity: 81%

Dew point: 77 °F

Location of PalikirLocation

Historic Weather in Palikir — Graph

°F

Palikir temperature yesterday

Maximum temperature yesterday: 80 °F (at 11:56 PM)
Minimum temperature yesterday: 75 °F (at 2:51 AM)
Average temperature yesterday: 77 °F

Past Weeks' High & Low Weather Summary

 TemperatureHumidityPressure
High89 °F (Jun 20, 11:50 AM)100% (Jun 20, 6:52 AM)29.90 "Hg (Jun 20, 6:52 AM)
Low75 °F (Jun 28, 5:53 AM)67% (Jun 20, 12:51 PM)29.73 "Hg (Jun 18, 3:53 PM)
Average81 °F87%29.82 "Hg
* Reported Jun 15 12:54 PM — Jun 30 12:53 PM, Palikir, Weather by CustomWeather, © 2015

Note: Actual official high and low records may vary slightly from our data, if they occured in-between our weather recording intervals... More about our weather records

Advertising

Palikir weather history for previous 24 hours

 ConditionsComfort  
Time TempWeatherWind HumidityBarometerVisibility
12:53 PM
Tue, Jun 30
83 °FMostly cloudy.3 mph81%29.81 "Hg15 mi
11:54 AM82 °FMostly cloudy.6 mph79%29.83 "Hg15 mi
10:54 AM80 °FMostly cloudy.6 mph83%29.86 "Hg15 mi
9:51 AM78 °FMostly cloudy.7 mph90%29.88 "Hg15 mi
8:50 AM77 °FSprinkles. Mostly cloudy.7 mph95%29.87 "Hg12 mi
7:50 AM76 °FLots of rain. Mostly cloudy.9 mph97%29.85 "Hg12 mi
5:50 AM77 °FSprinkles. Mostly cloudy.12 mph96%29.83 "Hg14 mi
2:50 AM78 °FMostly cloudy.6 mph96%29.81 "Hg14 mi
1:55 AM79 °FMostly cloudy.3 mph91%29.88 "Hg15 mi
12:55 AM79 °FSprinkles. Mostly cloudy.6 mph92%29.83 "Hg14 mi
11:56 PM
Mon, Jun 29
80 °FMostly cloudy.6 mph85%29.85 "Hg15 mi
10:54 PM78 °FMostly cloudy.6 mph94%29.85 "Hg15 mi
9:56 PM77 °FMostly cloudy.6 mph95%29.85 "Hg15 mi
8:52 PM77 °FMostly cloudy.6 mph92%29.84 "Hg15 mi
7:57 PM77 °FSprinkles. Mostly cloudy.6 mph95%29.83 "Hg10 mi
6:52 PM78 °FSprinkles. Mostly cloudy.6 mph93%29.80 "Hg10 mi
5:51 PM77 °FSprinkles. Mostly cloudy.8 mph95%29.80 "Hg7 mi
4:56 PM78 °FSprinkles. Mostly cloudy.8 mph89%29.80 "Hg8 mi
3:53 PM78 °FSprinkles. Mostly cloudy.7 mph94%29.81 "Hg8 mi
2:52 PM78 °FSprinkles. Mostly cloudy.6 mph95%29.81 "Hg13 mi
Weather by CustomWeather, © 2015

See weather overviewHow to use our weather pages